Content
SEND FEEDBACK

Daily
Averages
Monthly
Summary
France

PIC DU MIDI DE BIGORRE, FRANCE


Home > Europe > France
Elevation: 9378 feet     Latitude: 42 56N     Longitude: 000 08E

WEATHER
 
SELECT A DAY
Number of Records: 193,978;   Date Range: 7/1/96 - 8/10/14
 
SHARE

PRINT THIS DATA

[ ← Previous Day ]
WEATHER ALMANAC - JANUARY 19, 2013
[ Next Day → ]
[ °C ]   °F
Weather ElementAverageHighLow
Temperature45.1 °F48.2 °F (12:30 am)42.8 °F (6:30 pm)
Dewpoint43.9 °F46.4 °F (12:30 am)41 °F (4:00 pm)
Humidity95.1 %100 % (1:00 am)86 % (7:00 am)
Barometer29.03 in29.36 in (12:30 am)28.85 in (2:30 pm)
Wind Speed3.9 mph9.2 mph (12:00 pm)
Weather ElementAverage
Visibility5.7 mi
Wind DirectionESE (98 °)

Weather ElementTotal
Precipitation---
Heating Degree Days19.5 (Base 65)
Averaged from 49 records on January 19, 2013
WEATHER CONDITIONS BREAKOUT
WIND DIRECTION BREAKOUT
WEATHER BY HOUR - JANUARY 19, 2013
[ °C ]   °F
Local TimeTemperatureDewpointHumidityBarometerVisibilityWind DirectionWind SpeedGust SpeedPrecipitationEventsConditions
12:30 AM48.2 °F46.4 °F93 %29.36 in6.2 miCalmRainLight Rain
1:00 AM47.0 °F46.0 °F93 %29.34 in12.0 miSE (130°)3.5 mphClear
1:00 AM46.4 °F46.4 °F100 %29.30 in6.2 miSE (130°)3.5 mphOvercast
1:30 AM46.4 °F46.4 °F100 %29.30 in6.2 miSSE (150°)3.5 mphMostly Cloudy
2:00 AM46.4 °F44.6 °F93 %29.27 in6.2 miEast (100°)2.3 mphOvercast
2:30 AM44.6 °F44.6 °F100 %29.24 in6.2 miVariable1.2 mphMostly Cloudy
3:00 AM44.6 °F44.6 °F100 %29.24 inVariable2.3 mphRainLight Rain
3:30 AM44.6 °F44.6 °F100 %29.21 in0.7 miCalmRainRain
4:00 AM44.6 °F44.6 °F100 %29.21 in0.5 miNNW (330°)1.2 mphFog-RainRain
4:30 AM44.6 °F44.6 °F100 %29.18 in1.2 miCalmRainLight Rain
5:00 AM44.6 °F44.6 °F100 %29.15 inEast (80°)2.3 mphRainLight Rain
5:30 AM44.6 °F44.6 °F100 %29.12 in0.9 miVariable2.3 mphMist
6:00 AM46.4 °F44.6 °F93 %29.09 in6.2 miVariable3.5 mphOvercast
6:30 AM46.4 °F44.6 °F93 %29.09 in6.2 miVariable3.5 mphRainLight Rain
7:00 AM47.0 °F44.0 °F86 %29.08 in31.0 miEast (90°)4.6 mphRainLight Rain
7:00 AM46.4 °F44.6 °F93 %29.06 in6.2 miEast (90°)4.6 mphRainLight Rain
7:30 AM46.4 °F44.6 °F93 %29.06 in6.2 miVariable3.5 mphRainLight Rain
8:00 AM46.4 °F44.6 °F93 %29.03 in6.2 miNE (50°)3.5 mphRainLight Rain
8:30 AM46.4 °F42.8 °F87 %29.00 in6.2 miVariable3.5 mphMostly Cloudy
9:00 AM44.6 °F42.8 °F93 %28.97 in6.2 miNorth (10°)4.6 mphOvercast
9:30 AM46.4 °F44.6 °F93 %28.97 in6.2 miVariable3.5 mphOvercast
10:00 AM46.4 °F44.6 °F93 %28.94 in6.2 miVariable2.3 mphOvercast
10:30 AM46.4 °F44.6 °F93 %28.94 in6.2 miVariable2.3 mphOvercast
11:00 AM46.4 °F44.6 °F93 %28.94 in1.3 miNNE (30°)4.6 mphOvercast
11:30 AM44.6 °F42.8 °F93 %28.94 inNNE (20°)8.1 mphOvercast
12:00 PM44.6 °F42.8 °F93 %28.91 in3.7 miNorth (10°)9.2 mphMostly Cloudy
12:30 PM44.6 °F42.8 °F93 %28.91 in3.7 miNNE (20°)3.5 mphMostly Cloudy
1:00 PM44.6 °F42.8 °F93 %28.88 in4.3 miNNE (30°)4.6 mphOvercast
1:30 PM44.6 °F42.8 °F93 %28.88 in5.6 miNorth (360°)5.8 mphOvercast
2:00 PM44.6 °F42.8 °F93 %28.88 in6.2 miNorth (10°)8.1 mphOvercast
2:30 PM44.6 °F42.8 °F93 %28.85 in6.2 miNE (40°)6.9 mphMostly Cloudy
3:00 PM44.6 °F42.8 °F93 %28.85 in6.2 miNNE (30°)3.5 mphOvercast
3:30 PM44.6 °F42.8 °F93 %28.85 in6.2 miNorth (350°)4.6 mphOvercast
4:00 PM44.6 °F41.0 °F87 %28.88 in6.2 miVariable2.3 mphOvercast
4:30 PM44.6 °F42.8 °F93 %28.91 in6.2 miNW (310°)4.6 mphMostly Cloudy
5:00 PM46.4 °F44.6 °F93 %28.91 in6.2 miNW (310°)6.9 mphRainLight Rain
5:30 PM44.6 °F42.8 °F93 %28.94 in6.2 miNNE (30°)3.5 mphRainLight Rain
6:00 PM44.6 °F42.8 °F93 %28.94 inNNE (30°)5.8 mphRainLight Rain
6:30 PM42.8 °F42.8 °F100 %28.94 inNE (40°)5.8 mphRainLight Rain
7:00 PM43.0 °F42.0 °F96 %29.00 in2.0 miESE (110°)1.2 mphRainLight Rain
7:00 PM42.8 °F42.8 °F100 %28.97 inCalmRainLight Rain
7:30 PM42.8 °F42.8 °F100 %29.00 in1.7 miSouth (180°)2.3 mphRainRain
8:30 PM44.6 °F44.6 °F100 %29.00 inSW (230°)4.6 mphRainRain
9:00 PM44.6 °F44.6 °F100 %29.00 inWSW (250°)5.8 mphRainRain
9:30 PM44.6 °F44.6 °F100 %29.00 in5.6 miWest (270°)3.5 mphRainLight Rain
10:00 PM44.6 °F44.6 °F100 %29.00 in3.1 miWest (270°)3.5 mphRainLight Rain
10:30 PM44.6 °F44.6 °F100 %29.00 in3.1 miWSW (250°)5.8 mphRainLight Rain
11:00 PM44.6 °F42.8 °F93 %29.00 in5.0 miWSW (240°)9.2 mphRainLight Rain
11:30 PM44.6 °F42.8 °F93 %29.00 in5.6 miSW (220°)5.8 mphRainLight Rain
Hourly data recorded from LFBT, located miles away from Pic du Midi de Bigorre, France







STORIES FROM OUR PARTNERS